M.P.E.C. 2019-S182 Issued 2019 September 30, 20:55 UT The Minor Planet Electronic Circulars contain information on unusual minor planets and routine data on comets. They are published on behalf of Division F of the International Astronomical Union by the Minor Planet Center, Smithsonian Astrophysical Observatory, Cambridge, MA 02138, U.S.A. Prepared using the Tamkin Foundation Computer Network MPC@CFA.HARVARD.EDU URL https://www.minorplanetcenter.net/ ISSN 1523-6714 2019 SF8 Observations: K19S08F* C2019 09 29.18271 22 07 56.19 +15 31 13.3 18.6 GVES182703 K19S08F C2019 09 29.18836 22 08 01.48 +15 31 02.1 18.8 GVES182703 K19S08F C2019 09 29.19964 22 08 12.08 +15 30 39.3 VES182703 K19S08F C2019 09 29.22359 22 08 34.45 +15 29 51.6 19.1 GVES182703 K19S08F C2019 09 29.22494 22 08 35.75 +15 29 48.3 18.7 GVES182703 K19S08F C2019 09 29.22531222 08 35.69 +15 29 43.7 18.6 GVES182H01 K19S08F C2019 09 29.22696 22 08 37.58 +15 29 44.4 19.3 GVES182703 K19S08F C2019 09 29.22888322 08 39.04 +15 29 36.4 19.3 GVES182H01 K19S08F C2019 09 29.23814422 08 47.72 +15 29 17.1 18.7 GVES182H01 K19S08F C2019 09 29.24789922 08 56.87 +15 28 56.7 18.7 GVES182H01 K19S08F C2019 09 29.34421 22 10 27.58 +15 25 34.9 18.7 GVES182I52 K19S08F C2019 09 29.34439 22 10 27.77 +15 25 34.5 18.8 GVES182I52 K19S08F C2019 09 29.34458 22 10 27.92 +15 25 34.0 19.4 GVES182I52 K19S08F C2019 09 29.34476 22 10 28.08 +15 25 33.4 19.6 GVES182I52 K19S08F IC2019 09 29.78103722 17 32.65 +15 10 07.7 19.2 GVES182L01 K19S08F KC2019 09 29.78143622 17 33.01 +15 10 07.1 19.3 GVES182L01 K19S08F KC2019 09 29.78183222 17 33.35 +15 10 06.3 19.2 GVES182L01 K19S08F KC2019 09 29.78262622 17 34.10 +15 10 04.7 19.2 GVES182L01 K19S08F pC2019 09 29.78302922 17 34.46 +15 10 03.8 19.0 GVES182L01 K19S08F KC2019 09 29.78343222 17 34.83 +15 10 03.0 19.1 GVES182L01 K19S08F KC2019 09 29.78376 22 17 35.13 +15 10 13.9 19.3 GVES182K96 K19S08F KC2019 09 29.78713 22 17 38.17 +15 10 06.3 19.5 GVES182K96 K19S08F KC2019 09 29.78766 22 17 39.87 +15 09 58.3 18.7 RVES182B49 K19S08F KC2019 09 29.79184 22 17 42.42 +15 09 57.2 19.2 GVES182K96 K19S08F KC2019 09 29.79341 22 17 45.10 +15 09 46.9 18.4 RVES182B49 K19S08F KC2019 09 29.79865 22 17 49.87 +15 09 36.7 18.2 RVES182B49 K19S08F KC2019 09 29.80549 22 17 55.09 +15 09 19.6 18.9 VqES182K63 K19S08F KC2019 09 29.80737 22 17 56.82 +15 09 15.7 18.1 VqES182K63 K19S08F KC2019 09 29.81008 22 17 59.23 +15 09 10.3 18.1 VqES182K63 K19S08F KC2019 09 29.81280 22 18 01.69 +15 09 05.0 18.4 VqES182K63 K19S08F KC2019 09 29.81554 22 18 04.14 +15 08 59.4 18.3 VqES182K63 K19S08F KC2019 09 29.81564 22 18 02.90 +15 08 55.6 19.2 VtES182L04 K19S08F KC2019 09 29.81660 22 18 04.76 +15 08 53.9 18.9 GVES182595 K19S08F KC2019 09 29.82139 22 18 08.07 +15 08 43.6 19.1 VtES182L04 K19S08F KC2019 09 29.82640 22 18 13.59 +15 08 34.3 19.0 GVES182595 K19S08F KC2019 09 29.82701 22 18 13.09 +15 08 31.4 19.0 VtES182L04 K19S08F KC2019 09 29.83122 22 18 17.91 +15 08 24.5 18.6 GVES182595 K19S08F C2019 09 29.85543 22 18 40.96 +15 07 38.1 17.9 RVES182586 K19S08F C2019 09 29.85557 22 18 41.09 +15 07 37.7 18.1 RVES182586 K19S08F C2019 09 29.85571 22 18 41.22 +15 07 37.5 18.2 RVES182586 K19S08F C2019 09 29.85584 22 18 41.36 +15 07 37.1 18.2 RVES182586 K19S08F C2019 09 29.85598 22 18 41.46 +15 07 36.9 18.2 RVES182586 K19S08F C2019 09 29.85612 22 18 41.60 +15 07 36.6 17.9 RVES182586 K19S08F C2019 09 29.85626 22 18 41.71 +15 07 36.2 18.1 RVES182586 K19S08F C2019 09 29.85640 22 18 41.83 +15 07 35.9 18.1 RVES182586 K19S08F C2019 09 29.85654 22 18 41.97 +15 07 35.7 18.2 RVES182586 K19S08F KC2019 09 29.89792 22 19 16.95 +15 06 00.3 18.6 RoES182K88 K19S08F KC2019 09 29.89947522 19 20.32 +15 05 51.4 19.0 GVES182J95 K19S08F KC2019 09 29.90068 22 19 19.39 +15 05 54.4 18.2 RoES182K88 K19S08F KC2019 09 29.90343 22 19 21.85 +15 05 48.3 18.4 RoES182K88 K19S08F KC2019 09 29.90509522 19 25.35 +15 05 39.6 19.0 GVES182J95 K19S08F KC2019 09 29.90921822 19 29.08 +15 05 30.8 19.3 GVES182J95 K19S08F KC2019 09 29.96719922 20 20.68 +15 03 26.7 19.6 GVES182Z80 K19S08F KC2019 09 29.97512722 20 27.74 +15 03 09.3 19.0 GVES182Z80 K19S08F KC2019 09 29.98322922 20 35.01 +15 02 52.2 19.4 GVES182Z80 K19S08F KC2019 09 30.01281 22 21 09.11 +15 02 13.1 18.7 GVES182W34 K19S08F KC2019 09 30.01969 22 21 15.27 +15 02 00.1 18.9 GVES182W34 K19S08F KC2019 09 30.02448 22 21 19.57 +15 01 51.0 18.7 GVES182W34 K19S08F KC2019 09 30.04200 22 21 35.01 +15 01 15.2 19.1 GVES182W34 K19S08F KC2019 09 30.07499 22 22 05.14 +14 59 58.4 18.9 RqES182H36 K19S08F KC2019 09 30.07951 22 22 09.20 +14 59 49.4 18.4 RqES182H36 K19S08F KC2019 09 30.08889 22 22 17.39 +14 59 29.4 18.3 RqES182H36 K19S08F C2019 09 30.10048 22 22 29.25 +14 59 14.4 18.9 GVES182I52 K19S08F C2019 09 30.10067 22 22 29.43 +14 59 13.7 18.9 GVES182I52 K19S08F C2019 09 30.10085 22 22 29.59 +14 59 13.6 18.9 GVES182I52 K19S08F C2019 09 30.10104 22 22 29.75 +14 59 13.0 18.9 GVES182I52 K19S08F KC2019 09 30.15918322 23 17.75 +14 57 02.9 19.0 VuES182H21 K19S08F KC2019 09 30.16133722 23 19.62 +14 56 58.3 19.1 VuES182H21 K19S08F KC2019 09 30.16349122 23 21.48 +14 56 53.8 19.4 VuES182H21 K19S08F C2019 09 30.16488 22 23 25.36 +14 57 02.7 19.4 GVES182G96 K19S08F KC2019 09 30.16564322 23 23.33 +14 56 49.2 19.2 VuES182H21 K19S08F KC2019 09 30.16779322 23 25.19 +14 56 44.6 19.0 VuES182H21 K19S08F C2019 09 30.17053 22 23 30.25 +14 56 51.0 19.5 GVES182G96 K19S08F C2019 09 30.17618 22 23 35.12 +14 56 39.3 19.4 GVES182G96 K19S08F C2019 09 30.18183 22 23 40.00 +14 56 27.6 18.9 GVES182G96 K19S08F KC2019 09 30.18278 22 23 37.91 +14 56 20.5 19.2 VqES182850 K19S08F KC2019 09 30.18992 22 23 44.07 +14 56 04.5 19.4 VqES182850 K19S08F KC2019 09 30.19718 22 23 50.33 +14 55 48.6 19.3 VqES182850 K19S08F KC2019 09 30.20438 22 23 56.55 +14 55 33.5 19.4 VqES182850 K19S08F KC2019 09 30.21171 22 24 02.85 +14 55 18.1 19.0 VqES182850 K19S08F KC2019 09 30.21893 22 24 09.07 +14 55 01.6 19.3 VqES182850 K19S08F KC2019 09 30.22618 22 24 15.37 +14 54 45.3 19.1 VqES182850 K19S08F KC2019 09 30.23344 22 24 21.69 +14 54 29.2 18.9 VqES182850 K19S08F C2019 09 30.25833 22 24 46.53 +14 53 41.0 18.1 GVES182654 K19S08F C2019 09 30.26114 22 24 48.92 +14 53 34.9 18.1 GVES182654 K19S08F C2019 09 30.26579 22 24 52.90 +14 53 24.9 19.0 GVES182654 K19S08F C2019 09 30.26980 22 24 56.34 +14 53 16.3 19.0 GVES182654 K19S08F C2019 09 30.31053 22 25 31.22 +14 51 47.1 18.9 GVES182654 K19S08F C2019 09 30.31387 22 25 34.09 +14 51 39.8 18.9 GVES182654 K19S08F C2019 09 30.31925 22 25 38.69 +14 51 27.9 18.9 GVES182654 K19S08F C2019 09 30.32326 22 25 42.13 +14 51 19.0 18.9 GVES182654 K19S08F KC2019 09 30.76683 22 32 17.81 +14 35 04.0 18.8 GVES182587 K19S08F KC2019 09 30.76713 22 32 17.36 +14 35 01.4 VES182118 K19S08F KC2019 09 30.76790 22 32 18.68 +14 35 01.5 18.7 GVES182587 K19S08F KC2019 09 30.76861 22 32 19.29 +14 35 00.1 18.9 GVES182587 K19S08F KC2019 09 30.76933 22 32 19.89 +14 34 58.9 18.8 GVES182587 K19S08F KC2019 09 30.77184 22 32 21.17 +14 34 53.0 VES182118 K19S08F KC2019 09 30.77234 22 32 21.79 +14 34 46.8 18.9 RVES182K61 K19S08F KC2019 09 30.77465 22 32 23.72 +14 34 42.2 18.4 RVES182K61 K19S08F KC2019 09 30.77626 22 32 25.06 +14 34 38.8 18.3 RVES182K61 K19S08F KC2019 09 30.77857 22 32 26.99 +14 34 34.0 17.9 RVES182K61 K19S08F KC2019 09 30.78008 22 32 28.25 +14 34 31.0 17.9 RVES182K61 K19S08F KC2019 09 30.80935 22 32 53.91 +14 33 35.4 19.3 VqES182I93 K19S08F KC2019 09 30.81300 22 32 56.32 +14 33 28.8 18.7 VqES182C77 K19S08F KC2019 09 30.81664522 32 59.46 +14 33 22.5 18.7 GVES182C95 K19S08F KC2019 09 30.81726 22 33 00.44 +14 33 19.5 19.0 VqES182I93 K19S08F KC2019 09 30.81765 22 33 00.08 +14 33 20.3 19.8 VqES182C77 K19S08F KC2019 09 30.82231 22 33 03.96 +14 33 10.6 18.8 VqES182C77 K19S08F KC2019 09 30.82383 22 33 05.87 +14 33 05.7 18.8 VqES182I93 K19S08F KC2019 09 30.82613222 33 07.26 +14 33 03.2 19.1 GVES182C95 K19S08F KC2019 09 30.82624 22 33 07.16 +14 33 02.5 19.1 VqES182C77 K19S08F KC2019 09 30.83402922 33 13.76 +14 32 46.3 18.8 GVES182C95 Observer details: 118 Astronomical and Geophysical Observatory, Modra. Observer S. Gajdos. 0.6-m f/5.5 reflector + CCD. 586 Pic du Midi. Observers F. Colas, M. Birlan, A. Sonka, F. Sevres. 587 Sormano. Observers F. Manca, P. Sicoli, A. Testa. Measurer P. Sicoli. 0.5-m f/6.8 reflector + CCD. 595 Farra d'Isonzo. Observer E. Pettarin. 0.61-m f/4.5 reflector + CCD. 654 Table Mountain Observatory, Wrightwood-PHMC. Observers P. Choi, N. Saini, C. Zhai, R. Trahan, M. Shao. 703 Catalina Sky Survey. Observer H. Groeller. Measurers B. M. Africano, E. J. Christensen, G. A. Farneth, D. C. Fuls, A. R. Gibbs, A. D. Grauer, H. Groeller, R. A. Kowalski, S. M. Larson, G. J. Leonard, T. A. Pruyne, D. Rankin, R. L. Seaman, F. C. Shelly. 0.68-m Schmidt + 10K CCD. 850 Cordell-Lorenz Observatory, Sewanee. Observer D. T. Durig. 0.3-m f/5.0 Schmidt-Cassegrain + CCD. B49 Paus Observatory, Sabadell. Observer J. Camarasa. 0.30-m f/4 Newtonian reflector + CCD. C77 Bernezzo Observatory. Observer A. Mantero. 0.25-m f/4.0 reflector + CCD. C95 SATINO Remote Observatory, Haute Provence. Observer J. Jahn. 0.60-m f/3.2 Newtonian reflector + CCD. G96 Mt. Lemmon Survey. Observer R. A. Kowalski. Measurers B. M. Africano, E. J. Christensen, G. A. Farneth, D. C. Fuls, A. R. Gibbs, A. D. Grauer, H. Groeller, R. A. Kowalski, S. M. Larson, G. J. Leonard, T. A. Pruyne, D. Rankin, R. L. Seaman, F. C. Shelly. 1.5-m reflector + 10K CCD. H01 Magdalena Ridge Observatory, Socorro. Observers W. H. Ryan, E. V. Ryan. Measurer W. H. Ryan. 2.4-m f/8.9 Ritchey-Chretien + CCD. H21 Astronomical Research Observatory, Westfield. Observer R. Holmes. Measurers S. Foglia, L. Buzzi, T. Linder, R. Holmes. 0.61-m f/4.5 astrograph + CCD. H36 Sandlot Observatory, Scranton. Observer G. Hug. 0.56-m reflector + CCD. I52 Steward Observatory, Mt. Lemmon Station. Observers D. Rankin, H. Groeller. Measurers B. M. Africano, E. J. Christensen, G. A. Farneth, D. C. Fuls, A. R. Gibbs, A. D. Grauer, H. Groeller, R. A. Kowalski, S. M. Larson, G. J. Leonard, T. A. Pruyne, D. Rankin, R. L. Seaman, F. C. Shelly. 1.0-m reflector + CCD. I93 St Pardon de Conques. Observer F. Losse. 0.40-m f/3.7 reflector + CCD. J95 Great Shefford. Observer P. Birtwhistle. 0.41-m f/6.3 Schmidt-Cassegrain + CCD. K61 Rokycany Observatory. Observer M. Adamovsky. 0.51-m f/6.8 reflector + CCD. K63 G. Pascoli Observatory, Castelvecchio Pascoli. Observer R. Bacci. 0.41-m f/3.2 Newtonian reflector + CCD. K88 GINOP-KHK, Piszkesteto. Observer K. Sarneczky. 0.60-m Schmidt + CCD. K96 Savelli Observatory. Observers A. Brosio, A. De Pieri. 0.5-m f/8.0 Ritchey-Chretien + CCD. L01 Visnjan Observatory, Tican. Observer K. Korlevic. 1.0-m f/2.9 reflector + CCD. L04 ROASTERR-1 Observatory, Cluj-Napoca. Observer L. Hudin. 0.3-m f/5 reflector + CCD. W34 Squirrel Valley Observatory, Columbus. Observer R. L. Flynn. 0.35-m f/1.9 Schmidt-Cassegrain + CCD. Z80 Northolt Branch Observatory. Observer G. Wells. Measurers G. Wells, D. Bamberger. 0.25-m f/8.0 Ritchey-Chretien + CCD. Orbital elements: 2019 SF8 Earth MOID = 0.0433 AU Epoch 2019 Apr. 27.0 TT = JDT 2458600.5 Veres M 314.27162 (2000.0) P Q n 0.37627519 Peri. 115.47972 +0.81378899 +0.58023882 a 1.9001986 Node 209.08629 -0.55444960 +0.75828420 e 0.4829639 Incl. 3.85897 -0.17416406 +0.29720024 P 2.62 H 23.3 G 0.15 U 7 Residuals in seconds of arc 190929 703 0.6+ 0.5- 190929 586 0.2- 0.0 190930 850 0.2+ 0.1- 190929 703 0.3+ 0.4- 190929 586 0.1- 0.1+ 190930 850 0.1+ 0.2- 190929 703 0.4+ 0.4- 190929 586 0.3+ 0.1- 190930 850 0.1+ 0.4+ 190929 703 0.7- 0.8+ 190929 586 0.1- 0.0 190930 850 0.3- 1.0+ 190929 703 0.2- 0.2+ 190929 586 0.1+ 0.0 190930 850 0.5- 0.4+ 190929 H01 0.0 0.2- 190929 586 0.1- 0.1- 190930 850 0.0 0.0 190929 703 1.1- 0.5+ 190929 586 0.2- 0.1- 190930 850 0.6+ 0.0 190929 H01 0.0 0.1- 190929 586 0.0 0.0 190930 654 0.2+ 0.1+ 190929 H01 0.0 0.2- 190929 K88 0.3+ 0.4+ 190930 654 0.1- 0.0 190929 H01 0.1+ 0.2- 190929 J95 0.3- 0.1+ 190930 654 0.1- 0.1+ 190929 I52 0.1+ 0.1+ 190929 K88 0.1- 0.4+ 190930 654 0.0 0.1+ 190929 I52 0.4+ 0.1+ 190929 K88 0.1- 0.3+ 190930 654 0.0 0.0 190929 I52 0.1- 0.0 190929 J95 0.2- 0.1+ 190930 654 0.1+ 0.0 190929 I52 0.2- 0.2- 190929 J95 0.4+ 0.0 190930 654 0.0 0.0 190929 L01 0.3- 0.3- 190929 Z80 0.2- 0.3- 190930 654 0.0 0.0 190929 L01 0.3- 0.1- 190929 Z80 0.4- 0.6- 190930 587 0.0 0.2+ 190929 L01 0.6- 0.1- 190929 Z80 0.3+ 0.1- 190930 118 0.6+ 0.4+ 190929 L01 0.1- 0.1- 190930 W34 1.3- 1.1- 190930 587 0.3- 0.1- 190929 L01 0.2- 0.1- 190930 W34 0.5- 0.2- 190930 587 0.1- 0.0 190929 L01 0.1- 0.1- 190930 W34 0.4+ 0.3+ 190930 587 0.1- 0.3+ 190929 K96 0.1- 0.0 190930 W34 0.0 0.1- 190930 118 (0.9- 1.8+) 190929 K96 0.0 0.8- 190930 H36 0.1- 0.2+ 190930 K61 0.6- 0.4- 190929 B49 0.1- 0.2- 190930 H36 1.1+ 0.4+ 190930 K61 0.5- 0.2- 190929 K96 0.2+ 0.3- 190930 H36 0.4+ 0.5- 190930 K61 0.5- 0.3- 190929 B49 0.2+ 0.1- 190930 I52 0.1- 0.1+ 190930 K61 0.3- 0.2- 190929 B49 0.7+ 0.2+ 190930 I52 0.1+ 0.2- 190930 K61 0.3- 0.1- 190929 K63 0.2- 0.2- 190930 I52 0.1+ 0.1+ 190930 I93 0.3+ 0.4- 190929 K63 0.3+ 0.3- 190930 I52 0.0 0.2- 190930 C77 0.6+ 1.2- 190929 K63 0.1- 0.2- 190930 H21 0.0 0.2+ 190930 C95 0.1+ 0.4- 190929 K63 0.1+ 0.1+ 190930 H21 0.0 0.2+ 190930 I93 0.2+ 0.1+ 190929 K63 0.1- 0.1+ 190930 H21 0.1- 0.3+ 190930 C77 0.4- 0.0 190929 L04 0.3+ 0.0 190930 G96 0.0 0.0 190930 C77 0.3+ 0.1+ 190929 595 0.3+ 0.4- 190930 H21 0.3- 0.3+ 190930 I93 0.4+ 0.0 190929 L04 0.4+ 0.0 190930 H21 0.3- 0.3+ 190930 C95 0.0 0.2+ 190929 595 0.6+ 0.2+ 190930 G96 0.1+ 0.1+ 190930 C77 0.2- 0.2+ 190929 L04 0.1+ 0.5- 190930 G96 0.0 0.2+ 190930 C95 0.3+ 0.1- 190929 595 0.5+ 0.4+ 190930 G96 0.1+ 0.3+ 190929 586 0.2- 0.1+ 190930 850 0.3+ 0.5+ Ephemeris: 2019 SF8 a,e,i = 1.90, 0.48, 4 q = 0.9825 Date TT R. A. (2000) Decl. Delta r Elong. Phase V 2019 08 31 15 39 02.2 +05 55 20 0.1358 0.9840 75.3 97.0 22.4 ... 2019 09 15 17 36 28.4 +13 11 33 0.07490 1.0100 91.0 84.7 20.7 ... 2019 09 23 20 05 11.7 +17 21 57 0.06146 1.0359 120.1 56.9 19.4 ... 2019 09 29 22 04 52.9 +15 38 01 0.07069 1.0602 144.2 33.6 19.1 2019 09 30 22 20 52.0 +15 03 31 0.07372 1.0646 147.4 30.5 19.1 2019 10 01 22 35 31.3 +14 27 48 0.07709 1.0690 150.2 27.7 19.1 ... 2019 10 07 23 39 43.5 +11 07 57 0.1028 1.0979 162.0 16.3 19.4 ... 2019 10 15 00 25 32.6 +08 09 41 0.1467 1.1408 167.0 11.3 20.1 ... 2019 10 30 01 04 45.2 +05 43 46 0.2489 1.2314 161.1 15.2 21.6 A. U. Tomatic (C) Copyright 2019 MPC M.P.E.C. 2019-S182
